カタログに戻る

STARLINK-33731

運用中通信VLEO
NORAD 63475·PAYLOAD·🇺🇸 United States

打ち上げ Apr 6, 2025 から Cape Canaveral Space Force Station

Loading…

次のパス (今後24時間)

TLE

最新Source: CelesTrak SupGP

元期: Sep 15, 2026, 03:38 UTC

1 63475C 25070R   26258.15187500 -.00022922  00000+0 -83032-3 0  2584
2 63475  42.9994 270.2187 0001363 266.9876 234.6738 15.27586060    12

AllMySatでSTARLINK-33731をリアルタイム追跡

Download on the App Store